Location: ????
(33.1659°N, 35.6604°E)
Time: 05:26:58
(UTC+00:00)

Cosmos 1624 Rocket - Pass Details

Date: 20 September 2019
Orbit: 757 x 784 km, 74.0° (Epoch: 22 October)

Event Time Altitude Azimuth Distance (km) Brightness Sun altitude
Rises 17:04:04 0° 200° (SSW) 3,206 7.3 -18.8°
Reaches altitude 10° 17:06:26 10° 201° (SSW) 2,281 6.5 -19.2°
Maximum altitude 17:11:36 75° 287° (WNW) 786 4.1 -20.3°
Drops below altitude 10° 17:16:47 10° 13° (NNE) 2,289 6.5 -21.3°
Sets 17:19:10 0° 15° (NNE) 3,218 7.3 -21.8°
